Flag for U.S.A. Weather past 2 weeks in Duluth, Minnesota, U.S.A.

Now
-2 °F

Sunny.


Feels Like: -13 °F
Forecast: -3 / 7 °F
Wind: 5 mph from Northwest

Location: Sky Harbor Airport

Current Time: Dec 29, 2014 at 8:43:27 AM

Latest Report: Dec 29, 2014 at 8:14 AM


Visibility: 10 mi

Pressure: 30.55 "Hg

Humidity: 65%

Dew point: -11 °F

Location of DuluthLocation

Historic Weather in Duluth — Graph

°F

Duluth temperature yesterday

Maximum temperature yesterday: 21 °F (at 12:13 AM)
Minimum temperature yesterday: 7 °F (at 10:54 PM)
Average temperature yesterday: 15 °F

Past Weeks' High & Low Weather Summary

 TemperatureHumidityPressure
High39 °F (Dec 15, 1:53 PM)100% (Dec 14, 8:13 AM)30.54 "Hg (Dec 14, 8:13 AM)
Low-2 °F (Dec 29, 7:13 AM)45% (Dec 28, 2:14 PM)29.51 "Hg (Dec 25, 12:34 AM)
Average29 °F82%30.00 "Hg
* Reported Dec 14 7:13 AM — Dec 29 7:33 AM, Duluth, Weather by CustomWeather, © 2014

Note: Actual official high and low records may vary slightly from our data, if they occured in-between our weather recording intervals... More about our weather records

Advertising

Duluth weather history for previous 24 hours

 ConditionsComfort  
Time TempWeatherWind HumidityBarometerVisibility
7:33 AM
Dec 29
-2 °FClear.No wind71%30.54 "Hg10 mi
7:13 AM-2 °FClear.No wind71%30.53 "Hg10 mi
6:53 AM0 °FClear.No wind65%30.52 "Hg10 mi
6:34 AM0 °FClear.No wind65%30.52 "Hg10 mi
6:13 AM0 °FClear.No wind65%30.51 "Hg10 mi
5:53 AM0 °FClear.No wind65%30.50 "Hg10 mi
5:34 AM0 °FClear.No wind65%30.50 "Hg10 mi
4:53 AM1 °FClear.No wind65%30.48 "Hg10 mi
4:34 AM1 °FClear.No wind65%30.48 "Hg10 mi
4:13 AM1 °FClear.No wind65%30.48 "Hg10 mi
3:53 AM1 °FClear.No wind65%30.47 "Hg10 mi
3:34 AM1 °FClear.No wind65%30.47 "Hg10 mi
3:13 AM1 °FClear.No wind65%30.47 "Hg10 mi
2:53 AM1 °FClear.7 mph65%30.47 "Hg10 mi
2:34 AM1 °FClear.9 mph65%30.47 "Hg10 mi
2:13 AM3 °FClear.10 mph60%30.46 "Hg10 mi
1:53 AM3 °FClear.13 mph60%30.45 "Hg10 mi
1:34 AM3 °FClear.12 mph60%30.45 "Hg10 mi
1:13 AM3 °FClear.10 mph66%30.44 "Hg10 mi
12:54 AM3 °FClear.12 mph66%30.43 "Hg10 mi
12:33 AM5 °FClear.10 mph60%30.42 "Hg10 mi
12:13 AM7 °FClear.10 mph56%30.41 "Hg10 mi
11:53 PM
Dec 28
7 °FClear.10 mph56%30.41 "Hg10 mi
11:34 PM7 °FClear.10 mph56%30.40 "Hg10 mi
11:13 PM7 °FClear.9 mph61%30.40 "Hg10 mi
10:54 PM7 °FClear.10 mph61%30.39 "Hg10 mi
10:33 PM9 °FClear.9 mph61%30.39 "Hg10 mi
10:13 PM9 °FClear.No wind61%30.38 "Hg10 mi
9:53 PM9 °FClear.9 mph56%30.37 "Hg10 mi
9:33 PM9 °FClear.7 mph56%30.36 "Hg10 mi
9:14 PM10 °FClear.No wind52%30.36 "Hg10 mi
8:53 PM10 °FClear.No wind56%30.36 "Hg10 mi
8:33 PM10 °FClear.No wind56%30.35 "Hg10 mi
8:14 PM10 °FClear.No wind56%30.35 "Hg10 mi
7:53 PM10 °FClear.No wind56%30.34 "Hg10 mi
7:33 PM12 °FClear.No wind52%30.34 "Hg10 mi
7:14 PM12 °FClear.No wind57%30.34 "Hg10 mi
6:53 PM12 °FClear.No wind57%30.33 "Hg10 mi
6:33 PM12 °FClear.No wind52%30.32 "Hg10 mi
6:13 PM12 °FClear.No wind52%30.32 "Hg10 mi
5:53 PM12 °FClear.No wind57%30.31 "Hg10 mi
5:34 PM12 °FClear.No wind52%30.30 "Hg10 mi
5:13 PM14 °FClear.No wind48%30.29 "Hg10 mi
4:54 PM14 °FClear.No wind52%30.28 "Hg10 mi
4:33 PM14 °FClear.No wind48%30.28 "Hg10 mi
4:13 PM16 °FSunny.No wind45%30.27 "Hg10 mi
3:33 PM16 °FSunny.No wind45%30.26 "Hg10 mi
2:53 PM16 °FSunny.No wind45%30.25 "Hg10 mi
2:33 PM14 °FSunny.No wind48%30.23 "Hg10 mi
2:14 PM16 °FSunny.No wind45%30.23 "Hg10 mi
1:53 PM14 °FSunny.No wind48%30.23 "Hg10 mi
1:34 PM14 °FSunny.No wind48%30.22 "Hg10 mi
1:13 PM16 °FSunny.No wind48%30.22 "Hg10 mi
12:53 PM14 °FSunny.No wind48%30.22 "Hg10 mi
12:33 PM14 °FSunny.No wind48%30.22 "Hg10 mi
12:14 PM14 °FSunny.No wind52%30.22 "Hg10 mi
11:53 AM14 °FSunny.3 mph52%30.22 "Hg10 mi
11:34 AM14 °FSunny.12 mph48%30.22 "Hg10 mi
11:13 AM14 °FSunny.12 mph48%30.22 "Hg10 mi
10:53 AM14 °FSunny.No wind52%30.22 "Hg10 mi
10:34 AM14 °FSunny.13 mph52%30.21 "Hg10 mi
10:13 AM12 °FSunny.10 mph57%30.20 "Hg10 mi
9:54 AM12 °FSunny.12 mph62%30.20 "Hg10 mi
9:33 AM14 °FSunny.13 mph62%30.19 "Hg10 mi
9:14 AM16 °FSunny.13 mph57%30.17 "Hg10 mi
8:53 AM16 °FSunny.8 mph67%30.16 "Hg10 mi
8:33 AM16 °FScattered clouds.10 mph67%30.15 "Hg10 mi
8:14 AM18 °FScattered clouds.10 mph68%30.14 "Hg10 mi
Weather by CustomWeather, © 2014

See weather overviewHow to use our weather pages